Location: Piotrkow Trybunalski
(51.4000°N, 19.6830°E)
Time: 23:25:25
(UTC+01:00)

Explorer 7 - Pass Details

Date: 23 December 2025
Orbit: 433 x 550 km, 50.2° (Epoch: 13 January)

Event Time Altitude Azimuth Distance (km) Brightness Sun altitude
Rises 17:23:20 0° 279° (W) 2,481 11.3 -15.5°
Reaches altitude 10° 17:25:34 10° 274° (W) 1,587 10.3 -15.9°
Maximum altitude 17:29:00 47° 199° (SSW) 596 7.2 -16.4°
Enters shadow 17:31:02 21° 134° (SE) 1,050 8.0 -16.7°
